Weather History for Rhinelander, WI

Change the Weather History Date:

Monday, December 2, 2013

  Actual Average Record
Temperature  
Mean Temperature 26 °F 22 °F  
Max Temperature 31 °F 29 °F 62 °F (1998)
Min Temperature 20 °F 14 °F -21 °F (1976)
Degree Days  
Heating Degree Days 39 43  
Month to date heating degree days 75 86  
Since 1 July heating degree days 2302 2220  
Cooling Degree Days 0 0  
Month to date cooling degree days 0 0  
Year to date cooling degree days 281 261  
Moisture  
Dew Point 23 °F    
Average Humidity 84    
Maximum Humidity 92    
Minimum Humidity 75    
Precipitation  
Precipitation 0.01 in 0.06 in 0.80 in (1984)
Month to date precipitation 0.01 0.11  
Year to date precipitation 35.22 30.07  
Snow  
Snow 0.20 in - 6.00 in (1950)
Month to date snowfall 0.2  
Since 1 July snowfall 10.0  
Snow Depth 2.00 in    
Sea Level Pressure  
Sea Level Pressure 29.87 in    
Wind  
Wind Speed 8 mph (SE)    
Max Wind Speed 20 mph    
Max Gust Speed 24 mph    
Visibility 6 miles    
Events Snow    
T = Trace of Precipitation, MM = Missing Value Source: NWS Daily Summary

Daily Weather History Graph

Daily Weather History Graph

Search for Another Location

Airport:

Trip Planner

Search our weather history database for the weather conditions in past years. The results will help you decide how hot, cold, wet, or windy it might be!

Date:

Astronomy

Dec. 02, 2013 Rise Set
Actual Time 7:19 AM CST 4:15 PM CST
Civil Twilight 6:45 AM CST 4:48 PM CST
Nautical Twilight 6:08 AM CST 5:26 PM CST
Astronomical Twilight 5:32 AM CST 6:01 PM CST
Moon 6:42 AM CST (12/2) 4:19 PM CST (12/2)
Length of Visible Light 10h 03m
Length of Day
8h 55m
Waning Crescent, 0% of the Moon is Illuminated
Dec 2
Waning Crescent
Dec 2
New
Dec 9
First Quarter
Dec 17
Full
Dec 25
Last Quarter

Hourly Weather History & Observations

Time (CST) Temp. Windchill Dew Point Humidity Pressure Visibility Wind Dir Wind Speed Gust Speed Precip Events Conditions
12:53 AM 27.0 °F - 21.0 °F 78% 29.99 in 10.0 mi Calm Calm - N/A   Overcast
1:53 AM 27.0 °F - 19.9 °F 75% 29.97 in 10.0 mi Calm Calm - N/A   Overcast
2:53 AM 27.0 °F - 19.9 °F 75% 29.97 in 10.0 mi Calm Calm - N/A   Overcast
3:53 AM 26.1 °F 21.9 °F 21.0 °F 81% 29.95 in 10.0 mi SE 3.5 mph - N/A   Overcast
4:51 AM 26.6 °F - 19.4 °F 74% 29.87 in 10.0 mi Calm Calm - N/A   Overcast
4:53 AM 25.0 °F - 19.9 °F 81% 29.94 in 10.0 mi Calm Calm - N/A   Overcast
5:53 AM 24.1 °F - 21.9 °F 91% 29.93 in 6.0 mi Calm Calm - N/A   Scattered Clouds
6:49 AM 21.2 °F 16.4 °F 19.4 °F 93% 29.86 in 6.0 mi SE 3.5 mph - N/A   Mostly Cloudy
6:53 AM 21.0 °F 16.2 °F 19.9 °F 96% 29.93 in 6.0 mi SE 3.5 mph - N/A   Mostly Cloudy
7:53 AM 24.1 °F 18.2 °F 21.0 °F 88% 29.92 in 7.0 mi SE 4.6 mph - N/A   Overcast
8:53 AM 26.1 °F 18.4 °F 24.1 °F 92% 29.91 in 4.0 mi SE 6.9 mph - N/A   Overcast
9:00 AM 26.6 °F 19.1 °F 24.8 °F 93% 29.85 in 4.0 mi SSE 6.9 mph - N/A   Overcast
9:12 AM 26.6 °F 21.2 °F 24.8 °F 93% 29.85 in 4.0 mi SSE 4.6 mph - N/A   Overcast
9:53 AM 28.0 °F 18.6 °F 25.0 °F 88% 29.91 in 4.0 mi South 10.4 mph - N/A   Overcast
10:53 AM 28.9 °F 20.4 °F 26.1 °F 89% 29.91 in 2.5 mi South 9.2 mph - 0.00 in Snow Light Snow
11:07 AM 28.4 °F 19.1 °F 24.8 °F 86% 29.83 in 3.0 mi South 10.4 mph - 0.00 in   Overcast
11:53 AM 30.0 °F 22.4 °F 25.0 °F 82% 29.89 in 5.0 mi South 8.1 mph - 0.00 in   Haze
12:53 PM 30.0 °F 21.1 °F 25.0 °F 82% 29.86 in 6.0 mi SSE 10.4 mph - N/A   Haze
1:24 PM 30.2 °F 21.9 °F 24.8 °F 80% 29.79 in 6.0 mi SSE 9.2 mph - N/A   Haze
1:53 PM 30.0 °F 21.7 °F 24.1 °F 79% 29.84 in 7.0 mi SSE 9.2 mph - N/A   Overcast
2:53 PM 30.9 °F 23.5 °F 24.1 °F 76% 29.83 in 7.0 mi SE 8.1 mph - N/A   Overcast
3:37 PM 30.2 °F 21.3 °F 24.8 °F 80% 29.77 in 6.0 mi SE 10.4 mph - N/A   Haze
3:53 PM 30.9 °F 21.7 °F 24.1 °F 76% 29.84 in 7.0 mi SE 11.5 mph - N/A   Overcast
4:53 PM 30.0 °F 21.7 °F 24.1 °F 79% 29.83 in 3.0 mi ESE 9.2 mph - 0.00 in Snow Light Snow
5:53 PM 28.9 °F 21.1 °F 24.1 °F 82% 29.84 in 3.0 mi ESE 8.1 mph - 0.00 in Snow Light Snow
6:04 PM 28.4 °F 18.5 °F 24.8 °F 86% 29.78 in 2.5 mi ESE 11.5 mph - 0.00 in Snow Light Snow
6:46 PM 28.4 °F 19.1 °F 24.8 °F 86% 29.78 in 4.0 mi ESE 10.4 mph - 0.00 in Snow Light Snow
6:53 PM 28.0 °F 18.6 °F 25.0 °F 88% 29.85 in 5.0 mi East 10.4 mph - 0.00 in Snow Light Snow
7:53 PM 28.9 °F 17.3 °F 23.0 °F 78% 29.83 in 10.0 mi ESE 16.1 mph - 0.00 in   Overcast
8:53 PM 28.0 °F 16.5 °F 21.9 °F 78% 29.83 in 10.0 mi ESE 15.0 mph - N/A   Overcast
9:53 PM 28.9 °F 17.7 °F 24.1 °F 82% 29.83 in 10.0 mi ESE 15.0 mph - N/A   Overcast
10:53 PM 28.9 °F 18.6 °F 25.0 °F 85% 29.82 in 10.0 mi ESE 12.7 mph - N/A   Overcast
11:53 PM 30.0 °F 19.1 °F 26.1 °F 85% 29.81 in 2.0 mi ESE 15.0 mph - 0.00 in Snow Light Snow